Simultaneous Nadir Overpasses (SNOs) Predictions

Prediction of SNOs between GOES-17 and NOAA-20 Satellite Orbit:

Table of predicted SNOs for the next 14.0 days since TLE Epoch: 8/13/2022
Index Date Time (GOES-17) GOES-17 Lat,Lon NOAA-20 Lat,Lon Distance(km) Time Diff (sec)
1 08/13/2022 22:46:17 -0.06,-137.31 -0.76,-140.53 366.49 80
2 08/14/2022 22:30:11 -0.06,-137.31 0.26,-136.00 150.54 80
3 08/16/2022 10:51:57 0.06,-137.32 0.93,-141.26 448.53 80
4 08/17/2022 10:30:32 0.06,-137.32 -0.09,-136.73 68.17 80
5 08/19/2022 22:33:41 -0.06,-137.31 -0.10,-137.49 20.94 80
6 08/20/2022 22:17:35 -0.05,-137.30 0.92,-132.96 495.09 80
7 08/22/2022 10:39:22 0.05,-137.30 0.26,-138.22 105.58 80
8 08/23/2022 10:17:56 0.04,-137.29 -0.76,-133.69 410.00 80
9 08/24/2022 22:39:50 -0.03,-137.26 -0.44,-138.98 196.97 80
10 08/25/2022 22:23:45 -0.03,-137.25 0.58,-134.45 318.38 80
